Find Local Weather

World > North America > United States > Colorado

Wiley, Colorado Regional Weather

Lat: 38.16N, Lon: 102.72W
Wx Zone: COZ098
Feedback
Expires:201805230800;;391409
ASUS45 KBOU 230710
RWRCO 

WEATHER ROUNDUP FOR COLORADO
NATIONAL WEATHER SERVICE DENVER/BOULDER CO
100 AM MDT WED MAY 23 2018

NOTE: "FAIR" INDICATES FEW OR NO CLOUDS BELOW 12000 FEET WITH NO
SIGNIFICANT WEATHER AND/OR OBSTRUCTIONS TO VISIBILITY.


COZ086-089-092>099-230800-
...SOUTHEAST COLORADO...
  
CITY           SKY/WX    TMP DP  RH WIND       PRES   REMARKS
PUEBLO         FAIR      60  40  47 CALM      29.90R                  
LA JUNTA       FAIR      67  46  47 SW12      29.91F                  
LAMAR          FAIR      66  51  58 S18G31    29.90F                  
SPRINGFIELD      N/A     57  56  96 SE14      30.03S                  
$$
  

SKY/WX - Weather  TMP - Temperature  DP - Dewpoint  RH - Relative Humidity
WIND - Wind Direction/Speed PRES - Barometric Pressure